Theta_e
309 309 309 309 309 309 309 309 309 309 309 309 309 310 310 310 310 310 310 310 311 311 311 311 311 311 312 312 312 313 314 314 315 316 316 316 315 315 315 315 314 314 314 314 314 313 313 313 313 313 314 314 314 315 316 317 314 318 327 324 317 318 318 317 321 316 314 318 314 312 313 313 315 314 313 314 315 314 314 315 315 315 314 314 313 314 314 314
309 309 309 309 309 309 309 309 309 309 309 309 310 310 309 310 310 310 311 311 311 311 311 311 311 311 311 312 312 313 314 314 316 317 316 315 315 314 314 314 314 315 315 315 315 314 314 313 313 313 314 314 314 315 317 317 314 319 324 317 320 326 317 313 315 312 312 314 312 313 313 312 314 313 313 314 314 313 314 315 315 315 314 314 314 314 314 314
309 309 309 309 309 309 309 309 309 309 309 309 309 310 310 310 310 310 311 311 311 311 311 311 311 311 311 312 313 314 314 316 317 316 314 314 314 314 314 314 315 315 315 316 315 314 313 313 314 314 314 314 315 316 316 317 315 315 317 319 327 322 312 311 312 312 313 313 312 314 313 311 314 313 313 313 313 313 314 315 314 314 314 314 313 313 313 314
309 309 309 309 309 309 309 309 309 309 309 309 309 310 310 310 310 310 310 310 310 310 310 311 311 311 312 313 313 314 316 317 316 314 313 314 314 314 314 314 314 314 316 317 315 314 313 313 314 314 314 314 314 315 315 316 316 314 316 324 323 311 312 315 313 314 314 313 313 313 312 312 314 313 313 313 313 313 314 314 313 313 313 313 313 313 313 313
309 309 309 309 309 309 309 309 309 309 309 309 310 310 310 310 310 310 310 310 310 310 311 311 311 312 312 313 315 316 318 319 315 313 314 314 314 314 314 314 314 314 315 318 316 314 313 313 314 314 314 314 314 315 315 315 315 316 316 317 314 310 314 316 313 316 314 313 313 312 313 314 313 312 312 312 313 314 313 312 313 312 312 312 313 313 313 313
310 309 309 309 309 309 309 309 309 309 309 309 309 310 310 310 310 310 310 310 311 311 311 312 312 314 315 316 317 318 319 319 316 315 315 314 313 314 314 314 314 314 315 318 317 314 313 314 314 314 313 313 314 313 314 315 314 317 316 312 313 312 314 316 315 315 314 313 313 312 313 312 311 312 311 311 312 312 311 312 311 311 311 312 312 312 313 313
310 309 309 309 309 309 309 309 309 309 309 309 309 309 309 310 310 310 310 310 311 312 313 314 315 316 317 317 318 318 318 319 318 317 317 315 315 315 315 316 316 316 317 318 316 314 313 313 314 314 314 312 312 312 313 315 314 317 318 313 313 314 313 315 314 313 313 312 312 312 311 311 312 312 311 311 311 311 310 311 310 311 311 311 312 312 313 314
310 310 309 309 309 309 309 309 309 309 309 309 309 309 309 310 310 310 311 312 313 314 315 316 317 317 318 318 318 318 318 319 319 318 318 317 317 316 317 317 317 317 318 318 316 314 313 313 314 313 313 312 311 312 311 313 314 317 319 314 313 313 313 313 312 313 313 312 313 312 310 311 312 311 311 310 310 309 310 310 310 311 311 311 312 313 313 313
310 309 309 309 309 309 309 309 309 309 309 309 309 309 309 310 311 313 314 315 315 316 317 317 318 318 319 318 318 319 319 319 318 318 318 317 317 317 318 317 318 319 318 318 316 313 313 313 314 313 313 312 312 311 311 312 314 315 316 313 312 312 312 313 312 313 313 312 312 311 311 311 311 311 311 310 309 309 310 310 310 311 311 312 312 313 313 313
309 309 309 308 308 309 309 309 309 309 309 309 309 310 311 313 314 315 316 317 317 318 318 319 319 319 319 318 318 319 319 318 318 318 318 318 318 318 318 318 319 319 318 318 316 314 313 313 314 313 313 312 312 311 310 312 313 312 312 311 312 312 312 312 313 313 312 311 311 311 312 310 309 311 312 310 309 310 310 310 311 311 312 312 313 313 313 313
308 308 308 308 308 308 308 309 309 309 310 310 311 313 314 315 316 317 317 318 318 319 319 319 318 318 318 317 318 318 318 318 318 317 317 318 318 318 318 318 318 318 318 317 315 314 313 313 313 313 313 313 312 312 311 311 312 311 311 312 312 311 312 312 312 312 311 312 311 310 310 309 309 311 312 308 309 310 310 311 311 311 312 312 312 312 313 313
307 308 308 308 308 308 309 309 310 311 312 313 314 316 316 317 318 318 318 319 319 319 318 318 317 317 317 317 317 318 317 317 318 317 317 317 317 318 318 318 318 318 317 316 314 314 314 314 313 313 314 313 312 312 312 311 311 312 311 314 315 313 314 312 310 309 309 311 311 309 312 316 313 310 309 307 309 310 310 311 311 311 312 311 311 311 312 312
308 308 308 309 309 310 310 312 313 314 315 316 317 317 318 318 319 319 319 318 318 317 317 317 316 316 316 317 317 317 318 318 318 318 318 318 318 318 318 318 318 318 317 315 315 315 315 315 314 314 313 312 313 312 312 310 310 313 310 312 315 316 318 312 307 309 310 311 311 310 317 324 316 307 306 308 309 311 311 311 311 311 310 310 310 310 311 311
310 310 311 312 313 313 314 315 315 316 317 317 318 319 319 319 318 318 317 317 316 316 315 315 315 316 316 317 318 318 318 318 318 318 318 318 318 318 318 318 318 317 316 315 315 316 316 316 314 314 313 313 312 311 314 313 313 315 310 314 317 316 322 317 308 310 312 312 310 311 317 321 314 306 307 309 309 310 311 310 309 309 309 309 309 309 310 310
314 314 315 315 316 316 316 317 317 317 318 318 318 318 318 317 317 316 315 315 315 314 314 314 315 316 316 317 318 318 319 319 319 319 318 318 318 318 318 318 317 316 316 316 316 316 315 315 314 314 313 313 313 315 320 321 322 320 314 321 321 315 322 321 309 308 312 311 309 311 318 319 312 306 308 310 309 310 310 309 308 308 308 308 308 308 309 309
316 317 317 317 317 317 317 317 317 318 318 318 317 316 315 315 314 314 314 313 313 313 313 315 316 317 318 319 319 319 319 319 319 319 319 319 318 318 318 317 317 317 316 316 316 315 315 315 314 313 313 312 316 322 325 322 324 322 316 321 324 317 318 318 311 307 308 310 309 311 316 319 313 305 308 310 309 310 309 308 307 307 307 307 307 308 308 308
317 317 318 318 318 318 317 317 317 317 317 315 314 313 313 313 313 313 313 313 314 314 315 317 317 318 320 320 319 319 320 320 320 319 319 319 318 318 317 317 317 316 316 315 315 315 315 314 313 314 313 311 315 322 324 321 324 324 316 317 320 317 315 317 317 309 306 310 312 312 312 316 312 304 306 310 308 309 309 307 306 306 306 306 306 307 307 308
318 317 317 317 317 317 317 316 316 316 314 313 312 312 312 312 313 313 314 314 315 316 317 318 318 321 323 320 319 320 320 320 319 319 318 318 318 317 317 317 316 315 315 314 314 315 314 312 313 317 315 312 314 318 322 322 325 327 321 318 319 317 314 315 317 311 309 312 314 315 314 315 314 308 306 308 307 308 307 305 305 305 305 305 305 306 306 307
317 317 316 315 315 314 314 314 314 313 312 312 312 312 313 313 314 315 316 317 317 320 322 321 320 324 325 320 319 320 319 319 319 318 318 317 317 317 316 316 315 315 314 314 314 313 313 312 313 318 318 315 315 316 319 320 321 324 322 320 320 319 316 315 316 311 309 313 314 314 314 314 315 312 308 306 306 306 305 304 303 304 304 304 304 305 305 305
315 315 314 313 313 312 312 312 312 312 311 312 312 313 315 317 319 320 319 319 320 322 323 322 321 322 322 320 320 319 319 318 318 318 318 317 316 316 315 314 314 313 313 317 316 311 311 316 317 319 319 317 315 314 315 316 315 316 317 316 317 317 316 315 315 311 307 311 317 316 315 313 314 314 308 304 305 304 303 303 302 303 303 303 303 303 304 304
313 313 312 312 311 311 311 311 311 312 312 313 313 316 318 319 321 322 320 320 322 321 322 321 320 321 321 320 320 319 319 318 318 318 317 317 316 316 314 313 314 314 312 313 313 310 311 316 318 319 317 314 315 314 312 313 313 313 313 315 315 314 314 313 313 313 309 310 317 318 316 314 313 314 307 303 305 303 302 302 301 302 301 302 302 302 303 303
312 312 311 312 312 312 312 312 312 313 313 313 315 317 319 319 321 321 320 320 321 321 321 321 320 320 320 320 319 319 318 318 318 317 317 317 316 316 314 314 316 317 313 311 313 314 314 317 319 315 311 310 313 313 312 313 313 313 312 312 314 314 314 315 315 314 311 311 317 318 314 314 315 313 305 301 303 302 301 302 301 301 301 301 301 302 302 302
313 313 313 313 313 313 313 313 313 314 314 315 316 317 318 319 320 319 320 320 321 321 321 321 321 320 321 320 320 319 318 318 318 317 317 316 315 315 313 313 317 318 315 315 318 319 319 321 318 310 308 311 314 313 312 312 311 313 313 313 315 313 314 319 316 313 312 311 315 316 313 314 315 311 304 301 301 301 301 301 301 300 301 300 300 301 301 302
315 315 315 314 314 314 314 314 314 315 316 316 318 318 319 320 319 320 319 319 320 321 320 321 320 320 321 320 319 319 318 318 318 317 317 316 315 314 313 313 316 318 316 316 317 318 321 319 311 308 311 313 314 313 313 313 313 314 315 313 314 314 314 317 315 314 315 313 311 312 315 318 317 313 308 302 301 301 301 301 300 300 300 300 300 300 301 302
317 317 316 315 316 315 314 315 316 317 317 318 319 319 319 320 319 319 320 321 323 320 318 319 319 319 320 319 320 318 317 317 318 318 317 316 316 314 313 312 315 318 317 316 315 317 319 314 309 313 315 313 314 316 315 315 315 317 318 315 313 315 315 314 314 313 318 320 313 310 319 327 323 317 310 304 303 302 300 300 299 299 299 299 300 300 301 301
319 318 317 317 316 315 315 317 318 318 318 319 320 319 319 319 319 319 320 324 326 320 318 319 319 319 318 318 318 317 319 319 316 317 317 315 315 314 314 313 313 316 316 315 315 317 316 311 310 316 316 314 315 316 315 315 316 318 318 316 313 313 313 313 314 315 320 322 312 309 318 324 324 323 312 304 305 303 301 300 299 299 299 299 300 300 300 301
319 319 318 317 316 315 317 319 320 320 319 320 320 319 320 319 319 318 320 326 326 320 319 318 317 317 316 316 316 318 323 320 315 316 315 314 314 313 317 315 313 314 311 313 318 317 314 312 313 315 316 316 316 316 315 314 318 321 317 316 316 314 315 316 315 316 319 319 314 314 316 317 321 322 309 303 307 305 301 301 300 299 299 299 299 299 300 301
317 319 319 318 316 316 318 320 321 320 320 321 320 320 320 319 318 318 324 330 325 318 318 316 313 314 314 315 315 315 317 315 315 316 312 313 313 312 317 317 316 316 310 313 323 317 312 315 316 315 315 315 316 319 316 313 319 320 313 313 316 315 317 318 316 317 315 314 319 320 315 315 321 320 308 304 309 308 304 303 301 299 299 299 299 299 300 301
317 318 319 318 317 316 317 319 320 320 320 321 320 320 319 319 318 318 324 328 323 316 316 315 313 313 313 314 313 311 311 311 314 314 311 313 313 312 316 314 313 315 309 312 322 317 310 312 313 315 318 319 318 317 312 314 318 312 307 311 313 313 314 315 316 318 314 314 321 321 316 317 322 322 314 309 312 313 306 302 301 300 299 299 299 300 300 301
320 319 320 319 317 317 317 318 319 320 320 320 320 320 319 319 320 323 325 327 323 316 312 313 312 311 312 314 313 310 309 310 311 312 311 312 312 311 313 311 310 314 313 312 317 315 309 307 309 313 316 315 314 309 305 310 310 306 310 316 315 315 316 315 316 316 316 319 322 318 315 315 319 323 320 313 314 313 307 304 301 300 300 299 299 300 300 300
324 322 322 320 319 319 318 318 319 320 319 320 321 319 318 319 321 327 326 324 322 316 312 313 311 311 314 316 316 312 308 309 309 312 313 311 311 311 311 312 312 317 319 316 317 315 310 310 310 310 310 309 310 309 305 305 304 308 318 320 317 319 317 316 318 317 319 324 319 312 312 313 317 322 320 314 312 309 307 306 303 300 300 300 299 299 299 299
324 324 323 321 320 321 319 319 320 319 319 320 320 318 319 320 322 327 326 322 323 319 315 315 311 311 315 315 316 314 311 310 309 313 315 312 314 313 314 317 317 319 320 318 319 317 315 315 311 308 308 309 315 316 309 307 308 312 320 320 321 324 320 320 321 317 320 321 313 309 311 313 315 319 318 316 313 307 304 303 302 301 301 300 300 299 299 299
324 325 324 322 320 321 320 319 319 318 319 321 320 318 319 323 325 325 324 323 322 316 314 316 313 313 316 314 314 313 312 312 310 311 312 312 314 314 313 314 314 317 320 316 317 319 320 316 310 310 311 309 315 318 315 315 313 314 318 320 323 326 325 327 322 316 317 315 309 308 311 314 316 315 314 312 308 303 300 301 302 302 301 301 301 300 299 299
325 325 325 323 321 321 320 318 317 318 320 320 320 318 318 323 324 323 324 322 319 315 315 316 313 312 315 315 315 314 314 313 310 312 312 312 315 315 314 312 310 316 320 316 316 319 323 320 313 313 313 310 313 315 319 320 314 313 317 318 320 325 325 326 323 320 319 316 311 309 311 319 320 313 307 302 299 298 300 302 302 301 302 302 301 300 299 299
325 325 325 323 321 319 318 317 317 318 320 319 319 319 320 323 321 322 324 322 319 318 316 314 313 313 314 314 314 313 314 313 311 312 313 314 316 317 318 316 312 316 319 318 318 315 318 321 316 309 308 309 312 310 311 317 315 312 312 315 318 321 320 318 318 318 316 317 315 312 313 319 316 308 301 298 298 298 299 301 301 301 301 301 300 299 299 299
324 324 323 321 320 319 317 316 316 317 320 319 320 320 320 321 321 322 322 319 319 317 314 315 318 317 316 316 315 312 312 314 313 312 313 313 315 316 318 318 313 313 316 320 321 316 316 320 314 308 307 308 309 308 307 312 317 312 312 317 318 314 316 318 315 312 313 316 317 314 316 317 313 309 305 301 302 301 299 299 300 300 300 300 300 300 300 300
324 323 321 319 319 318 317 316 316 317 319 319 320 320 318 319 319 319 318 315 316 315 315 318 319 318 318 317 317 315 314 314 313 313 314 314 314 314 316 317 312 310 314 317 319 320 321 321 313 310 312 308 304 306 306 306 312 316 317 318 314 311 315 319 318 316 316 318 317 316 317 317 317 315 309 305 306 305 300 298 298 298 299 299 299 300 301 300
323 321 320 320 319 318 317 316 315 317 318 319 320 319 317 317 315 315 314 313 314 316 319 322 320 318 319 319 318 316 315 316 314 314 316 315 315 315 316 316 312 309 310 311 314 318 320 321 315 309 311 310 305 309 312 307 308 314 314 312 312 316 318 317 318 320 319 318 319 319 317 315 316 317 313 311 313 310 302 299 298 298 298 298 300 301 301 300
322 319 318 319 319 318 318 317 315 317 318 319 320 318 317 317 314 313 313 313 315 316 319 323 322 319 319 320 319 316 316 317 315 315 317 316 315 313 313 315 312 308 308 310 314 316 315 319 319 310 308 310 310 313 318 314 308 308 310 310 312 316 318 317 318 319 319 318 318 319 317 315 316 317 316 317 315 309 303 300 299 298 298 299 300 301 301 301
320 318 317 318 318 318 318 317 316 317 318 318 318 317 316 316 314 313 314 314 315 316 319 321 321 321 320 319 318 317 318 318 315 316 319 317 316 314 311 313 313 309 308 309 313 316 314 316 319 313 308 310 314 315 317 317 314 312 314 315 314 313 314 316 315 316 319 319 318 317 316 316 317 315 316 320 316 306 303 303 300 298 299 300 300 301 301 301
318 317 316 316 318 318 317 317 316 317 317 317 317 316 315 314 314 313 313 315 315 315 317 318 319 320 320 319 318 318 318 318 316 318 318 316 317 316 312 311 312 311 310 310 314 316 314 316 320 316 312 315 318 313 310 313 317 317 317 318 316 314 315 316 314 314 315 317 318 317 315 316 316 311 312 316 310 302 301 302 300 298 299 300 299 300 300 300
317 317 315 315 317 317 316 316 315 315 317 316 315 315 315 314 314 314 313 314 315 315 315 317 318 319 319 319 318 318 318 318 317 318 318 317 318 316 311 308 309 311 313 314 314 312 312 316 319 317 316 316 313 306 301 305 311 314 315 316 315 315 316 317 316 315 314 313 314 315 314 315 312 305 304 305 301 300 300 299 299 299 299 299 299 299 299 299
316 315 314 314 315 315 316 316 315 315 316 314 313 314 314 314 314 314 314 314 315 315 316 317 317 317 317 317 317 317 318 318 317 318 319 318 317 313 309 309 311 312 313 316 315 312 313 318 317 317 318 315 310 306 303 305 309 312 313 313 313 315 315 315 315 315 315 314 314 314 314 315 310 300 297 298 297 298 299 299 299 299 299 299 299 299 299 299
313 312 311 312 313 313 315 316 316 316 315 313 313 313 313 313 313 314 314 314 314 315 316 316 315 315 316 316 316 318 318 318 317 316 317 317 314 309 307 309 313 312 313 317 317 314 315 317 315 316 318 315 313 313 312 311 312 314 315 313 312 313 313 313 312 312 313 314 314 314 313 314 311 300 298 299 298 297 298 299 300 300 300 301 300 301 301 300
311 311 310 310 311 311 312 313 314 315 314 312 313 313 312 313 313 313 314 314 313 314 315 314 313 314 315 315 315 317 316 316 317 316 315 315 313 308 306 308 310 310 311 313 313 313 315 315 314 315 317 316 316 316 316 316 314 312 314 314 313 312 312 313 313 312 313 313 313 313 313 314 312 306 305 306 305 304 302 299 300 301 301 301 301 302 302 301
310 311 310 309 310 309 309 310 311 313 313 313 313 313 313 313 311 311 313 313 313 313 313 312 311 313 315 314 314 316 315 314 315 315 315 315 314 308 305 306 307 308 309 309 310 313 315 314 313 315 316 315 315 314 313 315 314 313 314 315 314 312 310 311 312 313 313 312 312 313 312 313 312 310 310 309 310 310 305 299 298 300 301 301 302 302 301 300
309 309 309 309 310 309 309 309 309 311 312 313 314 313 313 313 311 311 312 312 313 312 312 311 311 312 313 313 312 314 315 314 313 313 314 315 314 309 304 305 306 307 308 307 308 313 315 313 313 314 314 313 314 312 311 312 312 312 312 313 313 312 310 310 311 312 312 312 312 312 310 312 312 311 312 313 312 310 304 299 300 302 303 303 303 301 300 299
308 308 307 308 309 309 309 309 309 310 311 313 314 313 313 313 312 312 312 310 311 312 312 311 311 312 313 313 313 313 314 314 313 312 313 314 313 311 308 306 305 306 307 306 306 310 314 314 313 313 312 312 312 311 311 311 310 310 311 311 311 311 310 309 310 310 311 311 311 310 310 311 310 310 313 313 310 308 305 303 303 304 304 304 303 301 300 300
306 306 305 306 307 306 306 308 308 308 310 311 312 313 313 313 312 311 311 310 310 311 312 312 311 311 312 313 313 313 312 314 314 312 312 313 312 313 313 310 306 304 305 307 306 307 311 313 312 311 311 311 311 309 309 309 309 309 309 309 309 309 308 308 309 309 309 309 309 309 309 309 309 310 311 308 304 303 304 304 304 304 304 304 302 301 301 300
305 305 304 304 303 302 304 307 308 308 309 310 311 311 312 312 312 311 310 311 312 311 311 313 312 311 311 312 313 313 312 313 315 313 313 313 311 311 313 313 310 305 304 307 308 306 308 311 311 310 311 310 309 309 309 309 308 308 309 309 308 308 307 308 308 307 307 308 308 308 308 308 307 305 305 304 303 302 302 302 303 303 303 303 302 301 300 299
304 304 304 304 304 302 303 305 306 308 309 309 310 311 311 312 312 311 310 310 311 312 311 312 312 311 310 310 311 312 311 311 313 313 312 312 311 310 311 310 310 308 306 306 307 308 308 307 308 310 310 309 309 309 308 307 306 307 307 308 307 307 308 308 307 307 307 307 307 307 307 308 306 302 301 301 300 300 301 302 302 302 302 302 301 301 300 299
303 303 303 304 305 304 303 304 306 307 308 309 309 310 311 311 309 309 311 309 308 310 310 310 310 311 310 310 310 311 310 310 311 310 310 310 309 308 309 307 307 308 308 305 306 307 307 307 308 309 309 308 307 307 306 306 306 306 306 306 306 306 306 306 306 306 305 305 307 307 306 308 306 301 302 302 299 297 299 301 301 301 301 301 301 301 300 300
Wind_Speed
2 2 2 3 2 2 2 2 2 2 1 1 1 1 1 2 3 4 4 5 6 7 8 9 9 10 10 11 12 13 15 15 16 16 14 12 9 5 1 4 6 5 3 2 3 3 2 2 1 1 2 2 4 3 3 3 3 2 3 3 1 2 3 4 6 5 3 2 4 6 8 2 4 7 7 7 6 8 11 12 11 8 6 6 8 10 16 19
3 3 3 3 3 3 3 3 2 3 3 3 2 3 3 3 4 5 6 7 8 9 9 10 10 10 11 12 13 15 16 16 15 13 9 4 2 6 9 10 9 6 4 4 4 4 3 3 2 1 1 2 3 2 2 2 3 3 3 2 2 5 4 5 6 6 4 3 7 9 7 2 6 9 8 5 6 10 11 12 11 8 5 4 9 15 18 15
5 5 5 4 4 4 4 4 4 4 4 4 4 4 4 5 6 6 7 8 9 10 10 10 11 11 12 12 14 16 16 15 11 5 4 7 10 12 11 8 6 6 6 6 6 4 3 3 2 1 1 1 1 1 2 2 2 2 4 1 4 5 4 5 6 5 5 6 8 9 7 6 8 8 6 5 8 9 6 8 9 9 11 12 16 18 15 10
7 7 6 6 6 6 6 6 6 6 6 6 6 6 6 7 7 8 9 9 10 10 10 11 11 12 13 14 15 15 14 11 4 4 6 9 10 8 6 4 4 6 8 9 8 5 3 2 2 1 1 1 1 1 2 2 1 2 4 3 4 4 2 3 3 4 5 6 7 9 9 9 8 7 6 4 6 6 4 7 9 12 17 17 17 14 11 9
9 9 8 8 8 8 8 8 8 7 8 8 8 8 8 8 9 9 9 10 10 10 11 11 12 13 14 14 14 13 10 5 2 5 5 5 4 1 1 3 5 7 9 10 9 6 3 2 2 1 1 1 1 1 1 2 3 3 3 3 5 5 2 3 2 4 5 6 8 9 8 8 8 8 7 4 4 5 6 10 14 15 16 14 11 8 7 5
11 10 10 10 9 9 9 9 9 9 9 9 9 9 9 9 10 10 10 10 10 11 11 12 13 14 14 13 12 11 6 1 1 0 1 3 4 5 6 8 8 9 10 10 9 6 3 3 2 1 1 2 1 1 1 2 3 1 2 2 4 5 4 5 5 6 8 8 9 9 9 11 10 9 7 4 6 9 11 13 15 13 10 7 5 3 2 2
12 12 11 11 11 11 11 10 10 10 10 10 10 10 10 10 10 10 10 10 11 12 12 13 13 13 13 12 11 9 6 6 7 7 6 7 8 9 10 11 11 11 11 9 7 5 3 3 3 1 2 2 0 2 2 3 3 2 2 2 1 4 5 6 8 9 12 13 14 13 12 13 10 6 6 6 7 10 10 9 8 6 4 3 2 1 2 2
13 13 13 12 12 12 12 12 11 11 11 11 11 11 11 11 11 11 11 11 12 12 13 12 12 12 11 11 10 9 10 10 10 9 9 9 10 11 11 12 12 12 10 8 7 4 3 3 4 3 1 0 2 2 3 2 1 4 3 2 0 4 6 9 11 13 15 16 17 14 12 16 13 8 8 7 7 6 4 4 3 2 2 4 4 3 2 2
14 14 14 14 13 13 13 13 12 12 12 12 11 11 11 11 11 11 11 12 12 12 12 12 11 12 11 11 11 9 10 9 7 8 7 7 8 9 10 10 10 10 9 7 5 4 3 3 4 4 2 2 3 2 4 2 2 4 3 2 2 6 9 11 13 14 15 15 14 10 12 15 9 4 4 2 2 3 3 4 4 4 4 3 2 2 3 3
15 15 15 15 14 14 14 13 13 13 13 12 12 12 12 12 12 12 12 12 12 11 12 12 12 12 12 12 8 5 7 7 5 5 5 6 6 7 7 6 7 7 6 6 5 3 3 3 3 3 3 2 3 2 4 3 1 2 1 4 5 9 12 11 13 17 16 15 13 9 10 10 1 1 2 3 5 5 5 6 5 5 4 1 2 2 3 4
16 16 16 15 15 14 14 14 14 13 13 13 13 12 12 12 12 12 12 12 12 12 12 13 13 12 12 11 8 6 8 8 6 7 7 7 7 7 8 8 9 8 7 6 5 4 3 4 3 3 3 2 3 2 3 3 0 1 3 5 7 9 12 12 14 16 11 9 9 7 8 5 2 2 2 4 5 6 6 5 5 4 2 1 1 1 2 4
17 16 16 16 15 15 15 15 14 14 14 13 13 13 13 12 12 13 13 13 13 12 13 12 12 12 11 12 14 12 10 10 10 10 11 11 12 12 12 12 11 10 9 6 6 5 3 3 4 3 3 3 3 0 2 2 0 2 4 4 7 8 9 9 7 5 2 3 4 2 5 5 1 1 1 1 5 6 6 5 4 3 2 1 0 1 2 2
17 17 16 16 16 16 15 15 15 14 14 14 14 13 13 13 13 13 14 13 13 13 12 12 12 12 11 12 15 13 11 11 11 11 11 12 12 13 12 11 10 9 8 8 7 6 4 4 5 5 4 4 3 2 2 2 1 2 3 2 5 7 6 4 0 2 3 3 2 2 3 5 3 2 3 1 5 5 4 4 3 2 2 1 1 1 1 1
17 17 17 16 16 16 16 16 15 15 15 15 14 14 14 14 14 14 14 13 13 13 12 12 12 11 10 11 14 13 12 12 12 13 13 13 13 13 12 10 9 8 8 8 8 7 6 5 5 6 5 4 3 4 1 3 3 1 1 2 2 2 4 5 3 3 4 3 4 4 2 5 3 1 5 3 6 5 4 3 3 3 3 2 2 1 0 1
17 17 18 17 17 17 17 16 16 16 16 16 15 15 15 14 14 14 13 14 13 13 13 12 11 10 9 12 14 12 11 11 12 12 12 13 13 12 11 9 9 9 9 8 7 6 5 5 6 6 5 4 4 4 2 4 3 2 1 3 2 1 4 8 6 2 2 2 3 5 2 5 3 3 7 6 4 6 4 4 4 4 3 3 2 2 1 1
19 18 19 18 18 18 18 18 17 17 16 16 15 15 15 14 14 13 13 13 13 13 12 11 11 8 6 10 11 10 10 10 10 10 11 11 11 10 9 9 9 9 8 7 6 5 6 7 7 5 4 4 4 4 3 3 3 3 0 3 3 2 2 6 4 1 1 1 1 2 2 4 2 4 6 7 3 5 5 5 5 5 4 4 3 3 3 2
19 19 20 20 19 19 19 19 18 18 17 16 15 14 14 13 13 13 13 13 13 13 11 10 9 7 8 11 11 10 10 9 9 9 10 10 10 9 9 9 8 9 7 6 6 7 8 7 6 4 2 3 3 4 3 2 4 3 1 2 3 3 2 3 4 3 4 3 0 2 1 5 4 5 4 6 4 5 6 7 6 6 5 5 4 3 3 2
19 19 20 20 19 19 19 18 18 18 16 14 13 13 13 12 12 12 13 13 12 10 9 10 7 4 8 12 11 9 8 9 10 9 9 9 9 8 9 8 8 8 7 7 7 8 7 5 4 1 2 2 2 5 2 5 5 3 2 2 3 3 2 4 4 2 4 3 1 3 2 8 8 4 3 6 2 4 6 8 7 7 6 5 4 4 3 3
19 19 20 19 19 18 18 18 18 17 15 13 12 12 11 11 11 13 14 14 12 7 5 8 9 3 3 6 6 5 5 6 8 10 10 10 9 9 8 7 8 9 9 6 4 7 6 4 4 1 1 3 4 7 8 7 5 5 5 4 3 3 4 5 5 3 1 2 3 5 6 7 9 6 3 5 2 4 7 8 7 7 6 6 5 5 5 4
19 19 20 19 18 18 17 17 17 15 13 12 12 10 9 8 6 8 12 15 17 14 12 11 11 10 8 6 5 6 6 6 8 9 10 9 9 9 9 9 8 7 5 4 3 4 6 3 3 5 6 7 8 9 7 2 5 4 3 2 3 4 6 5 5 4 1 1 5 6 6 6 9 8 4 3 2 5 7 8 7 7 7 7 7 7 6 6
19 19 19 18 18 17 16 17 16 15 13 13 12 10 8 7 4 4 6 11 15 17 18 17 16 17 17 14 11 9 9 9 9 10 10 10 10 8 9 9 7 3 2 4 4 3 4 4 6 8 7 6 6 7 4 1 2 2 2 3 3 4 7 6 4 4 0 2 5 4 4 7 9 6 3 2 3 3 5 7 7 8 8 8 8 8 8 8
19 19 18 18 18 16 16 16 15 15 14 13 13 12 11 10 9 9 7 8 14 17 17 18 20 21 22 21 18 15 11 9 10 13 13 13 14 10 9 8 4 3 2 4 5 2 1 4 9 9 5 5 3 4 5 4 4 2 2 2 4 4 3 5 4 4 2 3 4 4 3 8 8 2 3 4 3 3 3 5 7 9 10 10 10 10 11 11
19 18 18 18 17 16 16 16 16 16 15 14 13 13 12 11 10 10 8 6 12 17 18 19 22 24 24 23 22 20 17 13 12 15 16 16 17 13 10 9 4 4 4 4 5 4 3 5 9 8 7 6 1 3 6 3 2 2 4 3 5 3 1 3 4 3 1 1 2 2 2 7 7 1 4 5 5 6 5 6 8 9 10 11 11 12 13 14
18 18 18 18 17 17 16 16 17 16 15 14 13 12 11 10 8 7 6 5 7 11 16 19 20 23 25 22 19 19 20 17 13 13 17 19 17 12 10 9 5 4 5 7 7 6 5 5 3 5 7 6 4 3 5 4 2 2 5 6 5 3 5 6 3 3 2 3 1 1 3 5 4 2 1 3 4 6 5 7 8 8 9 10 11 12 13 15
17 18 18 18 18 16 16 17 18 17 15 14 13 11 9 7 5 4 3 2 5 6 10 15 15 17 21 19 17 16 15 15 14 12 16 21 19 10 6 8 6 4 6 6 5 4 7 5 4 5 4 5 5 4 5 6 2 3 5 9 9 7 8 6 1 3 3 3 2 1 3 4 3 2 1 1 1 2 3 6 7 7 8 9 11 13 14 15
19 18 18 19 18 17 17 17 17 16 15 14 12 10 8 7 4 1 1 3 4 4 4 8 9 8 12 13 14 13 5 7 13 14 15 19 20 11 5 5 3 3 6 6 3 3 3 2 4 5 5 5 5 5 5 6 4 2 5 8 9 7 6 4 3 2 0 2 2 2 1 4 5 3 2 2 1 1 1 3 5 7 8 10 12 13 14 15
20 20 19 20 19 19 19 16 16 16 14 13 12 10 9 9 6 3 3 3 5 4 7 6 7 7 8 10 15 13 2 3 9 12 16 18 17 12 6 3 3 1 5 5 1 2 2 3 4 5 5 5 4 5 5 7 7 3 4 5 6 6 6 5 5 4 3 2 3 2 2 3 4 3 3 2 2 2 2 2 4 7 10 11 13 13 15 17
22 21 21 20 20 21 20 17 16 16 14 12 11 12 11 11 9 5 4 2 3 4 5 4 7 7 9 14 16 9 3 6 6 7 14 16 14 9 5 6 6 4 3 5 4 3 3 4 5 6 5 4 5 5 7 10 5 4 3 5 5 5 5 5 6 3 1 1 3 3 2 2 4 3 2 1 3 5 5 5 5 10 13 13 14 14 16 18
25 23 23 22 21 22 21 20 18 16 14 11 11 14 14 13 9 5 3 3 2 4 3 6 8 6 11 14 9 3 4 3 2 6 12 12 11 5 2 6 7 6 2 2 4 3 1 3 5 7 5 5 5 2 6 9 4 4 5 6 5 5 4 4 4 3 2 1 4 5 4 2 4 4 2 0 3 6 5 4 6 13 15 14 16 17 18 20
26 25 25 23 24 24 23 23 23 18 14 13 13 15 17 14 7 3 3 4 1 3 3 7 6 6 11 10 2 1 2 2 4 10 9 7 8 4 5 6 6 6 2 4 1 2 1 1 1 3 3 5 4 3 2 3 4 7 6 5 5 5 4 3 2 3 2 2 5 5 4 3 3 4 3 2 3 4 5 5 7 13 17 18 19 19 20 20
25 25 26 26 26 25 24 26 24 19 18 16 16 19 19 9 2 3 5 2 2 2 4 4 2 5 10 7 2 2 2 2 5 9 5 3 5 4 6 5 4 4 3 4 2 4 2 1 1 2 4 6 7 5 4 3 4 6 3 4 4 2 3 3 4 3 1 4 5 3 1 2 3 4 3 4 4 4 6 7 10 15 20 23 22 21 21 21
25 26 28 29 28 26 26 26 22 21 20 18 21 24 16 3 2 6 4 2 1 3 4 3 2 4 6 3 2 3 2 2 2 4 4 3 4 4 3 4 4 3 2 3 2 4 2 4 2 1 4 6 6 4 4 4 4 4 3 4 3 2 3 2 3 0 2 5 3 3 2 2 5 6 5 5 5 5 6 7 12 20 25 26 25 23 22 21
28 29 31 32 30 28 28 26 22 21 21 20 23 19 8 2 5 6 5 1 1 1 3 3 2 4 6 4 2 2 2 1 3 2 2 3 3 3 2 2 5 3 0 3 2 1 2 4 0 3 2 6 7 4 2 1 2 4 4 4 3 2 2 2 3 2 3 3 2 3 1 1 3 5 4 4 3 4 6 6 11 23 30 30 29 26 24 23
30 31 33 34 32 30 29 27 23 20 20 23 20 9 2 4 4 1 4 4 1 2 3 3 4 5 5 4 3 4 3 0 3 3 2 3 4 3 3 3 3 3 3 3 2 3 1 3 2 4 1 5 7 4 5 5 4 3 3 4 4 4 3 3 3 3 3 2 2 3 1 2 3 2 3 4 4 5 6 7 10 20 28 30 29 27 26 25
29 31 35 34 33 33 31 29 25 20 23 23 13 4 4 5 2 1 3 3 0 1 3 3 5 5 2 1 1 4 3 2 3 4 2 3 4 4 4 5 5 4 4 3 2 2 2 4 4 1 1 4 5 3 5 6 3 1 2 4 2 3 4 1 2 5 2 2 3 1 2 4 3 2 4 4 3 4 3 7 11 17 24 27 28 28 28 27
31 33 35 35 36 35 31 29 27 24 27 21 6 3 6 3 2 3 1 1 2 4 5 2 3 4 2 2 1 4 2 2 4 3 0 2 3 4 4 4 7 7 5 5 3 2 2 4 4 2 2 1 2 3 3 3 3 2 2 2 4 4 5 2 1 2 3 2 3 1 3 4 1 2 3 4 3 3 1 6 13 18 23 26 29 31 31 30
34 35 35 37 38 33 29 29 28 28 29 19 5 5 4 1 4 3 0 1 2 4 7 3 2 3 3 2 2 4 2 2 4 3 2 2 2 4 4 3 6 11 9 5 2 3 4 2 4 1 1 1 1 4 5 4 3 4 3 4 3 2 3 3 0 2 2 3 3 1 3 4 1 2 3 3 3 3 2 5 11 16 22 27 31 34 34 33
35 34 35 40 39 32 29 28 29 31 25 12 6 8 4 3 5 4 1 2 2 2 4 3 2 3 4 4 3 4 4 3 3 3 3 3 2 4 5 3 6 11 11 6 2 1 4 1 4 1 2 2 0 4 4 5 5 4 4 2 2 2 1 2 1 0 1 3 4 2 4 4 4 4 2 3 8 7 5 6 8 15 24 30 34 37 37 35
33 29 28 37 39 33 31 30 31 31 18 6 8 10 4 3 6 5 4 2 1 2 2 3 2 2 3 5 3 4 4 4 5 4 3 2 2 4 4 3 4 6 8 8 4 1 4 2 3 2 2 1 2 2 3 0 4 4 2 2 2 2 3 2 2 2 2 3 4 5 6 4 5 6 6 9 11 10 9 8 10 18 28 35 39 41 41 39
32 21 16 30 38 34 33 33 31 24 10 4 6 5 2 3 5 6 7 4 2 2 2 2 2 3 3 3 2 3 2 4 6 4 2 2 2 3 3 1 4 2 3 6 4 1 3 2 2 2 2 1 2 2 5 6 3 2 2 1 1 1 2 0 0 2 3 2 2 5 8 6 4 4 7 9 8 10 14 13 13 22 32 37 40 42 43 42
33 14 8 24 33 34 36 29 20 12 4 3 3 2 2 4 5 5 7 6 4 2 2 3 3 3 3 2 1 2 3 4 5 3 2 3 2 2 2 1 5 4 3 5 3 1 1 2 3 1 1 3 4 3 1 4 5 5 4 4 4 3 3 1 2 1 2 2 3 4 8 9 4 2 4 5 4 8 15 14 14 22 30 31 32 35 37 39
27 9 7 21 28 36 35 18 7 7 5 4 5 5 5 5 5 5 6 5 4 2 2 3 2 2 3 2 1 2 3 3 3 4 3 4 4 2 1 3 6 6 5 4 3 2 2 3 3 2 3 4 3 3 1 1 3 5 3 3 4 4 4 4 5 3 1 1 1 1 5 8 3 2 3 4 5 7 12 14 13 15 20 22 24 26 29 34
21 9 9 19 27 36 28 8 4 7 4 5 8 7 8 6 4 5 4 3 2 1 2 2 1 2 2 1 2 2 3 3 3 4 3 3 3 2 3 7 7 5 4 2 1 1 2 3 2 2 3 2 3 1 1 3 3 3 1 1 3 3 3 4 5 3 2 3 1 2 5 8 3 0 2 5 7 8 10 14 15 12 13 18 24 26 29 31
14 9 9 18 30 34 19 4 6 9 3 6 8 5 6 6 6 7 5 4 4 2 2 1 1 3 1 2 3 2 2 2 2 3 2 3 3 2 5 8 4 3 3 2 3 2 1 2 2 0 2 4 4 3 3 4 2 2 2 1 2 3 3 2 1 2 1 7 5 3 8 9 2 1 2 4 4 6 9 13 16 17 17 20 26 31 34 35
7 5 5 16 29 27 11 2 3 7 5 7 7 7 7 4 7 12 9 7 7 5 3 1 1 3 3 2 3 2 2 1 2 2 1 1 1 1 4 6 5 5 4 5 9 9 3 2 3 3 3 5 3 1 2 2 0 1 2 2 4 6 6 3 0 2 5 7 5 5 10 9 3 1 2 4 3 4 7 10 15 19 19 20 24 30 36 39
3 1 2 7 15 15 6 3 2 2 6 9 6 7 10 5 4 11 12 8 9 9 6 4 3 3 3 4 4 4 3 0 1 1 1 2 2 1 1 3 3 4 3 8 14 11 3 1 4 5 7 8 6 5 4 3 2 2 3 4 6 7 7 4 2 4 6 3 4 10 12 9 9 5 2 4 5 5 6 8 13 17 18 18 22 27 33 37
3 2 2 2 3 5 4 2 1 2 2 8 6 5 11 10 3 6 11 8 10 13 7 3 6 5 4 7 6 4 4 1 1 2 2 3 2 1 1 2 2 3 5 9 12 8 3 2 7 8 10 11 9 7 5 5 5 7 6 8 9 7 7 7 6 8 6 2 8 14 9 7 13 9 6 7 7 5 6 9 12 14 15 17 21 24 28 33
4 3 6 6 2 1 3 3 4 2 2 3 4 4 9 11 6 5 7 4 7 14 8 2 7 9 8 8 6 3 4 3 2 3 2 2 2 0 1 1 2 4 5 5 6 5 3 4 7 7 9 12 11 8 6 6 6 7 8 11 13 11 10 9 9 12 9 7 13 15 8 9 13 8 6 8 8 6 7 8 11 12 13 16 20 23 27 32
5 3 6 7 4 2 3 3 5 6 3 1 1 2 6 11 9 5 4 3 3 8 8 5 8 11 9 7 6 4 5 5 4 4 3 3 4 3 1 1 1 3 4 3 2 3 3 4 4 5 6 11 10 6 5 6 5 6 8 12 15 15 11 9 12 15 13 13 17 15 13 15 12 4 6 8 8 8 9 10 12 14 15 17 20 24 28 32
7 5 6 7 4 3 3 4 4 4 3 3 3 3 3 7 7 3 3 6 4 3 7 8 7 9 10 8 8 8 9 8 6 5 6 5 3 3 3 3 2 2 2 2 0 1 3 1 1 4 4 9 7 4 5 6 6 6 10 15 17 15 9 10 14 14 11 13 15 12 13 15 8 7 8 9 8 8 10 12 15 16 17 19 21 25 28 30
12 9 8 6 3 4 4 3 4 3 2 3 4 3 3 5 7 5 2 8 9 5 8 11 7 7 8 9 11 13 12 11 8 8 12 11 7 6 6 4 6 5 2 2 2 1 3 1 2 4 3 8 4 5 6 3 1 5 14 21 20 13 10 12 12 9 10 12 12 10 12 12 6 7 9 9 10 11 13 16 18 17 18 19 21 23 24 26
15 12 10 6 2 5 5 2 3 4 3 4 5 3 3 4 7 8 3 6 10 9 10 13 10 6 5 9 13 14 11 10 10 9 12 13 9 8 8 7 9 9 5 4 2 2 4 3 2 3 4 6 2 4 5 3 1 7 13 16 15 12 13 12 8 8 12 11 9 9 10 8 3 6 6 7 8 11 15 17 17 16 16 16 18 19 19 20
Wind_Direction
223 212 207 205 201 205 201 189 191 198 200 206 216 231 260 271 279 289 293 298 299 302 305 305 308 309 312 315 317 320 321 323 323 320 318 314 310 298 230 121 107 95 76 24 353 333 327 339 324 321 325 4 19 38 57 64 91 70 82 86 12 195 202 184 184 194 173 277 278 317 341 346 311 331 339 324 292 296 306 310 318 313 299 287 280 285 296 305
243 246 246 242 235 237 234 226 224 230 236 238 243 249 263 270 276 286 290 294 297 299 302 303 306 307 310 313 315 318 319 323 323 321 326 340 64 114 119 111 97 75 44 13 350 316 293 289 276 286 319 13 25 49 82 71 73 77 105 86 240 204 211 197 192 200 190 285 293 313 330 306 304 316 329 322 291 310 316 317 325 323 322 289 283 296 302 305
243 244 247 249 246 247 245 244 240 240 246 248 253 258 264 271 277 283 287 291 294 297 300 303 303 306 308 310 313 316 320 324 326 344 54 102 114 115 112 101 78 40 22 12 357 328 286 268 263 274 334 45 56 83 91 77 68 89 107 102 240 217 231 231 222 231 245 284 299 315 318 299 306 308 309 307 301 307 303 311 318 313 313 307 303 307 309 310
243 242 243 244 244 244 246 247 246 247 250 252 256 262 266 272 278 281 285 288 292 295 297 299 300 303 304 307 312 316 324 329 346 94 107 122 121 116 102 76 32 9 6 4 358 341 300 271 256 274 352 65 86 121 105 76 100 149 137 164 211 188 231 254 243 270 283 291 295 305 308 306 318 313 296 304 315 303 290 309 306 301 306 307 307 309 313 316
244 243 243 242 242 243 245 246 248 249 251 255 259 263 268 272 277 281 285 288 290 292 294 296 298 301 303 307 311 315 332 352 95 108 121 142 143 167 328 335 330 342 350 352 349 340 308 259 245 288 11 60 84 94 116 107 122 161 186 191 173 158 208 284 298 310 307 304 300 300 302 306 314 311 296 281 279 286 302 304 295 294 298 300 300 305 321 335
245 245 244 244 245 243 246 247 249 251 253 257 260 264 269 272 277 280 283 286 289 291 294 297 299 302 304 306 309 312 326 341 255 285 215 221 244 268 284 296 305 317 329 336 336 331 298 241 242 259 55 53 92 100 120 150 146 183 249 219 182 189 238 284 293 304 305 301 297 294 296 299 305 311 305 279 265 283 297 294 289 288 285 282 288 307 348 51
245 246 245 246 246 246 248 250 251 253 256 259 262 266 269 272 276 279 282 286 289 292 295 298 300 301 302 304 306 306 292 276 278 276 265 253 254 266 277 285 294 302 314 322 321 318 283 239 235 192 91 44 172 134 118 165 164 155 262 264 215 239 261 292 296 299 299 292 291 293 291 287 290 301 306 303 287 289 292 286 283 279 261 225 198 165 134 93
245 246 246 246 247 248 249 252 254 256 258 261 264 266 268 272 275 279 283 287 290 293 294 296 296 295 298 299 302 302 288 282 280 273 266 252 251 260 269 279 288 296 303 304 306 302 269 236 227 206 121 22 206 166 144 170 176 164 231 278 194 264 283 298 294 293 293 289 290 291 278 277 285 281 287 304 287 277 271 249 242 218 166 153 154 137 125 79
245 246 245 246 246 247 250 252 255 256 259 261 263 266 269 273 276 280 283 285 288 289 290 290 289 291 292 292 298 301 291 287 283 275 265 252 249 254 262 274 283 290 293 288 288 284 253 226 223 220 227 213 184 176 154 162 265 194 206 281 282 288 296 297 291 290 289 285 285 281 274 283 296 278 274 318 207 192 185 201 183 177 177 146 117 75 45 14
246 246 245 246 247 248 251 253 255 257 259 261 264 267 270 273 277 280 281 282 282 282 284 284 284 287 287 289 292 289 285 284 281 276 262 251 248 246 254 270 280 285 284 274 269 271 247 229 230 208 226 212 157 155 159 158 276 191 232 297 282 292 299 297 288 287 287 283 276 258 270 286 282 190 226 127 148 163 175 191 174 178 194 133 50 16 359 340
245 245 245 246 247 249 251 253 256 258 260 263 266 269 272 275 276 276 276 276 276 278 279 280 284 284 284 285 263 245 276 281 273 272 264 258 251 249 259 270 277 276 271 266 253 249 232 226 227 191 210 190 149 164 194 192 315 4 346 309 292 310 306 291 281 286 290 289 279 243 262 293 135 173 194 164 176 189 196 188 173 178 185 116 26 335 317 311
243 244 245 246 248 249 251 253 255 258 261 263 266 269 270 271 271 272 272 273 274 275 276 278 281 280 282 279 263 260 277 275 271 272 264 260 258 259 265 269 269 265 261 254 232 223 216 220 221 217 211 166 154 128 187 177 335 349 16 327 305 338 323 291 280 301 321 280 300 263 276 316 18 166 103 199 191 190 201 180 170 177 171 165 210 296 289 307
243 243 244 246 247 249 250 252 254 257 259 261 263 264 265 266 267 268 270 271 272 273 274 275 277 280 282 276 272 274 276 270 270 269 262 259 259 259 262 263 259 253 245 235 227 227 233 239 225 217 204 175 173 170 145 97 49 313 39 39 315 346 329 298 214 356 354 275 267 76 292 293 298 333 40 121 177 180 199 170 169 184 175 191 191 262 292 327
245 246 247 247 248 249 250 252 253 255 257 259 260 261 262 263 264 266 268 269 271 270 271 272 273 277 275 270 275 276 272 270 268 264 262 259 257 257 257 256 249 238 231 231 237 246 247 240 218 205 196 192 172 147 111 25 37 313 21 47 353 343 285 294 295 296 334 287 197 134 272 271 241 34 46 102 191 217 228 182 176 183 171 180 168 165 253 12
249 250 250 250 250 249 250 250 251 253 255 256 257 258 259 259 261 262 264 265 267 267 268 270 273 277 274 270 272 273 269 266 262 258 255 253 253 254 249 242 234 228 232 238 243 242 227 202 192 182 170 177 151 118 37 353 15 26 318 305 339 160 270 304 313 261 253 261 158 136 236 279 207 158 39 52 193 224 209 180 176 177 164 160 152 137 133 75
248 250 251 251 250 249 249 248 248 250 251 253 254 254 255 256 257 258 260 262 263 264 266 269 270 271 273 273 269 265 264 259 256 251 246 246 246 242 236 232 228 227 232 231 225 205 182 171 166 155 149 154 132 98 49 356 336 1 200 253 265 206 281 314 333 54 160 190 92 106 223 291 210 168 22 34 163 205 179 167 169 167 157 147 141 136 134 118
246 247 248 249 248 247 246 244 245 246 247 249 249 251 253 255 256 257 257 257 260 262 265 267 268 272 266 264 264 260 259 254 249 243 237 238 237 233 228 222 216 215 211 194 182 169 165 159 151 154 122 100 105 99 63 313 281 312 38 231 245 221 224 294 314 20 63 105 30 3 211 268 252 172 14 19 160 185 162 158 161 156 148 139 134 135 139 146
246 245 245 245 244 244 243 242 243 244 245 245 246 248 250 252 254 256 256 256 257 262 269 254 244 287 266 249 251 258 257 246 239 232 227 226 225 223 216 211 208 198 177 164 169 164 163 145 128 134 35 49 101 119 173 235 218 207 192 210 253 248 230 253 275 325 38 38 334 333 263 270 274 200 42 21 151 173 152 149 150 146 139 135 131 131 134 139
248 245 243 242 242 241 241 241 242 244 244 242 243 244 248 254 257 258 256 251 242 236 258 230 199 189 235 223 227 239 243 232 226 224 223 223 220 214 201 192 190 180 160 151 175 165 155 109 93 133 214 201 188 174 203 213 178 186 194 190 215 242 250 236 250 259 26 357 276 264 251 260 274 261 5 26 103 138 139 140 134 134 129 128 125 120 123 123
243 241 241 241 240 240 239 239 241 242 241 239 238 239 244 248 258 262 251 244 241 239 246 239 221 226 234 236 238 232 229 225 222 219 217 216 211 198 183 171 163 166 159 151 176 162 150 147 166 206 215 204 200 201 209 159 128 158 172 202 211 225 263 256 262 275 164 213 260 250 249 258 261 265 326 17 143 122 130 134 124 128 125 123 123 118 122 120
239 238 238 239 237 236 235 235 237 235 234 233 230 231 232 223 224 265 261 256 257 253 252 252 246 245 247 249 249 244 235 227 225 221 216 208 194 184 178 166 144 156 198 133 122 114 138 179 218 224 217 191 186 195 202 197 172 178 186 250 256 227 258 263 258 291 195 189 266 281 286 277 262 256 329 9 147 107 123 134 128 133 129 126 128 124 126 123
238 236 234 234 232 231 230 230 231 231 229 228 226 228 232 233 241 259 277 280 271 263 257 252 247 246 247 246 245 243 232 224 226 220 216 202 190 191 181 163 150 169 165 118 108 84 142 218 239 230 178 129 122 147 167 212 225 214 161 216 260 239 281 291 286 328 21 177 259 317 312 277 274 252 38 33 92 94 123 150 145 143 137 134 134 131 132 129
238 234 231 229 227 226 225 225 227 228 228 227 226 229 237 246 252 262 273 278 277 268 257 250 247 245 245 243 242 237 225 225 231 220 215 203 191 195 182 159 152 145 147 175 168 163 199 239 243 217 157 139 167 134 138 161 211 186 155 179 246 240 32 281 289 339 13 171 255 321 311 275 276 236 64 48 94 107 120 146 144 144 142 138 138 136 136 136
236 231 229 226 224 223 220 222 225 226 228 227 228 229 238 248 249 266 275 269 279 268 254 249 245 244 243 241 238 231 223 226 232 219 213 203 186 186 187 167 142 144 184 198 185 188 226 238 196 148 144 167 206 175 155 182 248 237 199 209 234 226 212 230 284 330 328 5 22 317 313 285 272 253 59 54 99 107 118 137 133 139 142 140 141 140 141 139
230 229 228 225 224 220 217 222 224 225 228 228 229 228 231 239 237 264 291 296 284 265 251 243 236 240 238 234 230 220 219 227 228 218 207 200 189 175 175 171 159 193 199 171 168 216 253 240 149 125 124 153 181 213 196 184 219 289 230 217 220 221 226 228 336 358 351 353 345 18 326 290 311 318 267 16 81 96 118 134 130 138 145 146 148 145 144 140
226 226 225 225 223 215 213 222 225 225 227 228 230 223 217 210 195 225 56 21 288 234 194 211 210 221 221 216 206 190 205 239 219 211 197 195 196 181 157 161 145 202 181 142 151 222 247 223 140 152 161 151 175 234 223 164 142 293 244 208 209 212 219 208 142 110 192 267 304 45 186 265 314 326 297 322 253 183 140 146 146 150 155 159 158 152 148 142
228 225 224 226 222 214 213 219 223 222 221 227 226 209 201 188 163 131 72 3 278 185 143 168 172 179 193 183 171 165 182 196 177 193 189 186 193 187 180 171 111 181 168 130 180 243 167 113 95 132 151 155 186 236 218 154 134 236 238 157 162 178 192 190 159 174 227 251 324 14 141 253 296 282 286 306 240 232 217 210 182 168 171 171 166 159 152 145
232 228 226 224 222 221 218 217 221 219 216 225 217 197 189 177 163 129 96 278 263 126 125 155 153 161 166 162 161 152 133 135 133 181 183 180 185 182 197 197 164 172 168 149 206 264 135 157 175 150 133 170 202 220 187 157 154 239 205 125 138 156 164 157 141 176 255 40 305 295 151 245 277 269 311 349 257 253 213 207 208 189 185 180 173 165 156 149
232 231 230 225 221 222 219 218 220 215 212 215 202 191 176 158 153 114 94 235 201 100 122 146 141 145 141 149 160 125 109 112 94 161 164 170 181 169 172 193 161 137 118 148 204 260 83 188 191 149 140 197 211 243 179 168 187 195 136 98 81 78 88 98 116 132 65 67 246 242 183 203 274 281 307 53 259 254 208 192 209 199 193 185 179 172 163 156
232 232 232 226 219 216 216 219 220 213 205 204 197 181 160 146 138 123 179 222 160 91 115 141 151 154 139 138 148 37 115 61 98 133 137 151 167 139 113 141 128 116 47 4 347 261 353 67 171 152 171 176 140 60 98 147 140 137 119 76 61 44 47 53 64 95 70 285 248 240 203 190 268 279 239 196 231 212 160 168 204 203 197 191 185 179 170 163
234 232 231 227 222 219 219 220 219 212 200 198 191 170 158 149 110 170 201 208 91 108 113 138 171 149 146 145 160 169 103 50 124 130 119 117 137 121 111 118 99 86 15 340 313 312 347 71 268 207 171 133 104 63 39 58 103 121 97 79 89 354 12 26 357 47 111 254 261 286 296 175 218 261 240 221 227 192 168 177 190 195 198 194 188 184 177 168
234 234 234 231 226 224 225 226 223 212 201 194 183 169 159 163 228 204 217 61 107 191 148 165 201 155 160 125 110 162 116 99 154 126 123 133 141 158 151 155 151 81 348 253 256 336 298 232 247 148 174 156 118 77 50 37 58 94 90 94 97 349 12 0 313 312 220 248 270 312 329 203 225 254 252 230 216 208 207 203 192 190 192 192 189 186 181 174
234 235 237 234 231 227 227 230 225 210 202 191 183 174 154 191 213 213 220 177 190 204 121 124 104 125 149 126 129 176 103 138 189 136 121 118 134 191 211 173 160 120 56 195 195 341 306 292 204 125 202 192 164 138 138 152 118 144 148 130 127 95 66 288 271 273 265 263 276 283 298 272 260 269 256 230 230 236 233 232 208 194 190 188 187 186 183 178
237 237 238 236 234 232 227 225 219 207 200 190 182 174 146 207 224 215 197 209 323 26 72 96 100 106 137 151 198 177 116 199 179 128 93 105 124 194 220 211 179 113 99 144 182 169 173 312 202 164 199 186 182 174 154 143 137 173 165 132 143 147 152 224 227 222 260 290 303 294 256 192 214 263 276 258 282 290 252 230 210 198 193 188 186 187 186 181
243 243 239 233 231 230 224 219 213 202 196 189 176 167 196 213 260 73 183 202 230 57 39 58 104 113 165 206 255 194 173 215 161 119 117 152 158 186 187 197 193 149 125 157 217 147 148 266 253 279 12 155 176 187 131 114 116 210 142 114 156 179 156 176 187 174 185 304 297 256 227 218 197 257 307 305 308 325 258 203 187 189 191 189 190 191 189 185
245 242 234 228 224 223 220 215 209 200 195 189 179 209 207 215 192 178 188 160 167 144 115 83 91 110 194 213 253 230 208 155 150 135 194 193 194 199 196 207 189 176 160 157 191 145 124 274 298 9 13 106 165 179 131 123 164 162 136 173 218 179 127 108 210 124 95 289 273 187 248 283 334 291 312 352 343 351 0 182 175 179 185 190 194 194 192 189
238 232 227 226 225 220 215 214 209 202 197 191 201 218 203 208 183 176 48 115 145 145 139 160 175 143 181 192 199 211 192 129 151 152 180 200 221 193 202 244 189 186 193 169 188 189 138 269 299 55 126 296 151 124 75 46 105 127 172 212 208 144 90 89 178 7 43 260 274 167 230 260 272 271 315 356 298 280 260 192 176 178 186 193 198 197 194 192
233 225 221 227 228 218 211 212 208 204 200 194 216 220 201 194 184 157 147 155 133 145 159 189 187 146 173 183 194 193 173 157 158 161 172 194 241 174 169 216 189 194 204 171 122 214 129 133 292 284 164 252 25 104 70 24 53 114 173 181 126 134 97 88 120 281 250 263 284 266 255 249 203 216 235 232 232 220 203 201 188 187 193 197 201 200 197 194
226 216 217 226 224 213 207 208 203 201 202 204 217 216 193 172 180 161 157 162 134 158 187 206 168 112 167 172 166 171 168 159 158 167 174 172 224 183 164 192 184 206 212 171 153 203 128 137 267 259 203 232 21 91 167 254 36 64 87 38 48 144 147 142 146 155 208 265 287 285 291 275 218 200 186 204 216 195 183 198 205 203 200 200 201 200 198 196
211 205 219 223 216 209 205 201 197 197 201 221 211 204 159 153 170 166 161 152 128 154 200 217 163 141 164 173 174 169 147 145 155 163 190 175 200 208 207 161 140 167 195 163 158 129 116 150 221 280 308 190 185 200 184 178 146 97 87 46 22 109 100 194 218 123 148 191 238 276 284 270 234 192 186 206 212 185 185 195 205 208 206 204 202 200 199 198
198 201 232 213 207 205 200 194 194 194 193 230 205 167 166 159 147 154 160 156 143 135 157 161 155 153 149 148 195 179 130 133 154 156 186 203 183 189 231 141 144 150 122 129 159 183 142 154 166 195 259 199 230 281 227 181 165 150 163 184 182 153 114 173 258 204 142 173 186 229 270 272 258 189 193 212 212 196 201 203 205 211 211 208 206 204 203 202
191 200 220 199 197 196 191 187 190 185 191 206 176 156 166 152 138 152 155 152 147 140 140 128 125 142 140 138 166 167 141 136 164 168 182 206 187 168 180 129 140 140 118 126 189 194 142 113 115 191 213 213 256 298 308 244 134 130 162 181 157 142 140 177 228 225 158 237 187 133 270 275 273 202 227 252 254 238 225 220 219 219 216 212 210 209 209 209
190 193 195 189 187 185 184 187 183 183 202 172 148 152 165 156 142 147 149 160 155 117 139 125 115 143 145 129 132 160 160 142 168 175 176 199 190 174 154 143 130 109 102 126 185 129 97 92 73 297 280 323 340 326 14 28 75 120 201 151 143 165 166 184 211 181 148 226 185 74 264 265 278 208 266 280 273 263 239 225 224 223 218 214 210 210 213 213
179 172 169 179 181 181 184 205 184 187 192 142 139 149 164 164 166 159 155 171 166 122 124 134 130 148 138 89 115 175 205 158 176 184 174 184 184 163 164 164 151 119 132 162 176 179 146 98 99 12 318 332 345 352 344 350 34 183 237 231 201 193 126 99 186 116 202 230 196 181 253 258 285 23 331 337 307 265 241 223 218 216 215 212 209 210 213 213
144 139 146 175 181 184 196 299 185 190 172 150 157 166 160 171 191 182 171 160 161 150 137 163 148 134 132 97 102 168 205 165 172 182 151 187 224 162 172 187 181 162 169 174 165 160 155 152 151 157 225 246 248 227 249 271 217 191 247 245 225 204 173 164 204 162 225 232 190 206 250 263 290 13 343 330 307 261 246 224 217 219 218 216 213 213 214 212
130 145 116 169 186 199 226 321 334 240 180 167 167 171 173 181 199 186 177 170 176 167 146 152 152 122 145 158 149 179 201 85 82 156 156 189 248 340 131 175 166 150 142 147 152 147 109 206 194 189 216 234 236 216 191 158 152 205 233 225 219 213 195 188 193 204 230 245 221 236 247 265 275 261 220 257 246 231 238 223 216 219 220 222 223 221 218 214
132 203 176 142 195 225 248 266 282 313 214 179 171 173 180 177 158 180 185 186 181 171 155 148 166 166 177 173 169 186 191 151 104 161 165 175 217 342 81 126 118 130 124 135 151 142 85 222 213 205 221 236 243 231 181 158 209 224 230 236 235 219 188 185 213 230 238 259 253 251 244 247 262 252 207 224 229 217 231 227 222 224 225 229 232 227 223 218
152 177 179 171 168 216 240 225 184 196 279 213 183 171 178 179 169 165 179 183 172 172 170 174 190 194 185 169 165 166 168 170 183 179 154 158 197 261 45 44 96 144 140 135 157 143 122 226 217 195 223 243 249 240 187 176 223 231 226 236 240 231 205 194 221 235 230 233 253 262 255 242 258 255 207 214 221 222 235 236 236 240 238 239 236 229 226 223
163 146 166 177 174 158 201 195 164 179 214 222 206 197 179 182 181 161 142 125 166 187 186 191 202 199 190 165 146 152 174 177 184 183 168 178 196 183 171 286 240 158 141 132 164 153 150 243 220 175 226 255 253 238 194 189 221 237 235 238 240 239 225 207 229 238 234 239 252 264 270 264 260 227 196 217 227 233 240 241 240 239 239 241 237 231 230 227
188 179 162 160 152 127 159 172 158 177 194 178 210 227 173 170 173 154 133 152 156 194 200 204 197 182 185 173 163 193 204 180 170 176 170 179 199 189 199 211 170 139 124 123 139 196 177 228 138 136 222 262 252 193 174 196 214 236 253 252 246 246 238 227 238 242 238 245 252 256 266 268 249 171 183 214 222 224 231 236 238 238 240 241 237 234 233 229
207 198 173 153 145 146 151 159 152 159 199 197 204 194 162 179 175 151 166 193 185 172 187 198 181 157 182 188 190 211 208 182 188 192 180 187 195 185 199 192 152 143 155 157 148 180 188 206 52 104 209 259 247 152 163 186 246 266 261 256 251 249 243 236 238 233 223 234 244 242 250 259 235 166 185 211 214 217 226 232 236 237 236 235 234 234 233 229
208 201 189 172 163 168 161 137 144 176 211 203 205 198 168 172 162 152 177 224 202 192 194 194 176 149 184 200 206 220 212 192 206 204 189 197 200 190 201 193 164 158 160 164 159 155 165 167 130 142 216 263 256 134 140 113 26 263 253 248 243 242 244 246 247 235 221 216 222 231 240 248 208 159 181 211 214 220 232 238 241 241 238 235 236 236 234 232